This is the latest recevied weather packets stored in our database for station/object DB0OHA-13. If no packets are shown the sender has not sent any weather packets the latest 10 day(s).
| Time | Temp. | Humidity | Pressure | Rain* | Wind** | Luminosity | Snow |
|---|---|---|---|---|---|---|---|
| 1777326072 | 10.56° C | 59% | 1021.2 hPa | 0 mm | - | 0 W/m² | - |
| 1777324872 | 10.56° C | 60% | 1021.1 hPa | 0 mm | - | 0 W/m² | - |
| 1777324272 | 10.56° C | 60% | 1021.2 hPa | 0 mm | - | 0 W/m² | - |
| 1777323071 | 10.56° C | 62% | 1021.2 hPa | 0 mm | - | 0 W/m² | - |
| 1777321871 | 10.56° C | 63% | 1021.2 hPa | 0 mm | - | 0 W/m² | - |
| 1777321272 | 11.11° C | 62% | 1021.1 hPa | 0 mm | - | 0 W/m² | - |
| 1777320671 | 11.11° C | 62% | 1021.1 hPa | 0 mm | - | 0 W/m² | - |
| 1777320071 | 11.67° C | 62% | 1021.2 hPa | 0 mm | - | 0 W/m² | - |
| 1777319471 | 11.67° C | 61% | 1021.2 hPa | 0 mm | - | 0 W/m² | - |
| 1777318871 | 11.67° C | 61% | 1021.1 hPa | 0 mm | - | 0 W/m² | - |
| 1777318271 | 11.67° C | 61% | 1021 hPa | 0 mm | - | 0 W/m² | - |
| 1777317670 | 11.67° C | 61% | 1021 hPa | 0 mm | - | 0 W/m² | - |
| 1777317070 | 12.22° C | 61% | 1021.1 hPa | 0 mm | - | 0 W/m² | - |
| 1777315870 | 12.22° C | 61% | 1020.9 hPa | 0 mm | - | 0 W/m² | - |
| 1777315270 | 12.22° C | 61% | 1020.7 hPa | 0 mm | - | 0 W/m² | - |
| 1777314670 | 12.22° C | 61% | 1020.7 hPa | 0 mm | - | 5 W/m² | - |
| 1777314070 | 12.78° C | 60% | 1020.6 hPa | 0 mm | - | 11 W/m² | - |
| 1777313470 | 13.33° C | 57% | 1020.5 hPa | 0 mm | - | 19 W/m² | - |
| 1777312870 | 13.33° C | 57% | 1020.5 hPa | 0 mm | - | 30 W/m² | - |
| 1777312270 | 13.89° C | 56% | 1020.5 hPa | 0 mm | - | 36 W/m² | - |
| 1777311670 | 14.44° C | 55% | 1020.3 hPa | 0 mm | - | 56 W/m² | - |
| 1777311070 | 14.44° C | 55% | 1020.3 hPa | 0 mm | - | 77 W/m² | - |
| 1777310470 | 14.44° C | 54% | 1020.2 hPa | 0 mm | - | 63 W/m² | - |
| 1777309869 | 14.44° C | 54% | 1020.2 hPa | 0 mm | - | 59 W/m² | - |
| 1777309274 | 15° C | 49% | 1020.4 hPa | 0 mm | - | 55 W/m² | - |
* Rain latest hour (hover to see other rain measurements)
** Current wind speed in m/s (hover to see current wind gust speed)